Location: Altleiningen
(49.5078°N, 8.0741°E)
Time: 10:40:55
(UTC+00:00)

H-2A R/B - Pass Details

Date: 03 March 2021
Orbit: 732 x 837 km, 98.2° (Epoch: 13 April)

Event Time Altitude Azimuth Distance (km) Brightness Sun altitude
Rises 18:01:09 0° 165° (SSE) 3,368 5.2 -8.5°
Reaches altitude 10° 18:03:30 10° 166° (SSE) 2,443 4.5 -8.8°
Maximum altitude 18:08:57 85° 255° (WSW) 848 2.3 -9.7°
Drops below altitude 10° 18:14:26 10° 345° (NNW) 2,454 4.8 -10.6°
Sets 18:16:48 0° 346° (NNW) 3,385 5.6 -11.0°
